Location: Tel Aviv-Yafo
(32.0853°N, 34.7818°E)
Time: 00:48:42
(UTC+02:00)

Hubble Space Telescope - Visible Passes

Search period start: 18 January 2026 00:00
Search period end: 28 January 2026 00:00
Orbit: 479 x 481 km, 28.5° (Epoch: 17 January)

Date Brightness Start Highest point End Pass type
(mag) Time Alt. Az. Time Alt. Az. Time Alt. Az.
20 Jan 3.3 19:14:34 10° SSW 19:15:01 12° SSW 19:15:01 12° SSW visible
21 Jan 2.5 18:44:48 10° SSW 18:47:04 18° SSE 18:47:04 18° SSE visible
22 Jan 2.5 18:15:01 10° SSW 18:17:42 18° SSE 18:19:04 16° SE visible
23 Jan 2.5 17:45:13 10° SSW 17:47:55 19° SSE 17:50:37 10° ESE visible
23 Jan 3.0 19:23:49 10° WSW 19:25:10 20° SW 19:25:10 20° SW visible
24 Jan 1.5 18:54:01 10° WSW 18:57:07 39° SSW 18:57:07 39° SSW visible
25 Jan 1.3 18:24:12 10° WSW 18:27:46 41° S 18:29:02 30° SE visible
26 Jan 1.4 17:54:22 10° WSW 17:57:56 41° S 18:00:57 14° ESE visible
26 Jan 3.3 19:33:56 10° WSW 19:35:05 18° WSW 19:35:05 18° WSW visible
27 Jan 1.7 19:04:06 10° WSW 19:07:00 40° SW 19:07:00 40° SW visible
